User: anonymous   Login
Location: Star Hoppers Observatory
(42.7905°N, 83.6127°W)
Time: 15:45:48
(UTC-04:00)
Language:

NOSS 3-1 (A) - Orbit

View from above orbital plane
View from above orbital plane
View from above satellite
View from above satellite

Ground track
Ground track

The orbit data is extracted from the following two-line orbital elements,

1 26905U 01040A   16111.85966440 0.00000000  00000-0  00000-0 0    02
2 26905  63.4206  31.5917 0332000 357.5380   2.4620 13.40736594    06
Epoch (UTC): 20 April 2016 20:37:55
Eccentricity: 0.0332000
inclination: 63.4206°
perigee height: 858 km
apogee height: 1355 km
right ascension of ascending node: 31.5917°
argument of perigee: 357.5380°
revolutions per day: 13.40736594
mean anomaly at epoch: 2.4620°
orbit number at epoch: 0

The dashed part of the orbit path shows where the satellite is in the earth's shadow,  

DLR